Burnet, TX

7:22 PM CDT on July 25, 2017 (GMT -0500)
Burnet Municipal-Craddock

Weather History for KBMQ - November, 2011

Change the Weather History Date:

Wednesday, November 9, 2011

  Actual Average Record
Temperature  
Mean Temperature 52 °F -  
Max Temperature 60 °F 65 °F 88 °F (2002)
Min Temperature 44 °F 48 °F 32 °F (2000)
Degree Days  
Heating Degree Days 13    
Growing Degree Days 2 (Base 50)    
Moisture  
Dew Point 32 °F    
Average Humidity 48    
Maximum Humidity 71    
Minimum Humidity 28    
Precipitation  
Precipitation 0.00 in - - ()
Sea Level Pressure  
Sea Level Pressure 30.32 in    
Wind  
Wind Speed 12 mph (North)    
Max Wind Speed 17 mph    
Max Gust Speed 31 mph    
Visibility 10 miles    
Events      
Averages and records for this station are not official NWS values.
T = Trace of Precipitation, MM = Missing Value Source: NWS Daily Summary

Daily Weather History Graph

Daily Weather History Graph

Search for Another Location

Airport or City:

Trip Planner

Search our weather history database for the weather conditions in past years. The results will help you decide how hot, cold, wet, or windy it might be!

Date:

Astronomy

Nov. 09, 2011 Rise Set
Actual Time 6:54 AM CST 5:39 PM CST
Civil Twilight 6:28 AM CST 6:04 PM CST
Nautical Twilight 6:00 AM CST 6:33 PM CST
Astronomical Twilight 5:31 AM CST 7:01 PM CST
Moon 4:52 PM CST (11/9) 5:51 AM CST (11/9)
Length of Visible Light 11h 35m
Length of Day
10h 44m
Waxing Gibbous, 99% of the Moon is Illuminated
Nov 9
Waxing Gibbous
Nov 10
Full
Nov 18
Last Quarter
Nov 25
New
Dec 2
First Quarter

Hourly Weather History & Observations

Time (CST) Temp. Windchill Dew Point Humidity Pressure Visibility Wind Dir Wind Speed Gust Speed Precip Events Conditions
12:53 AM 54.0 °F - 39.9 °F 59% 30.16 in 10.0 mi North 10.4 mph - N/A   Clear
1:53 AM 52.0 °F - 41.0 °F 66% 30.18 in 10.0 mi NNW 12.7 mph 20.7 mph N/A   Clear
2:53 AM 50.0 °F - 39.9 °F 68% 30.19 in 10.0 mi NNW 12.7 mph - N/A   Clear
3:53 AM 48.0 °F - 37.0 °F 66% 30.20 in 10.0 mi NNW 16.1 mph 25.3 mph N/A   Clear
4:53 AM 46.9 °F - 36.0 °F 66% 30.23 in 10.0 mi NNW 10.4 mph 21.9 mph N/A   Clear
6:53 AM 44.1 °F 38.1 °F 35.1 °F 71% 30.28 in 10.0 mi North 11.5 mph 18.4 mph N/A   Clear
8:53 AM 48.9 °F - 35.1 °F 59% 30.35 in 10.0 mi North 15.0 mph 24.2 mph N/A   Clear
9:53 AM 52.0 °F - 33.1 °F 49% 30.37 in 10.0 mi NNE 17.3 mph 31.1 mph N/A   Clear
10:53 AM 55.0 °F - 32.0 °F 42% 30.38 in 10.0 mi NNE 16.1 mph 25.3 mph N/A   Clear
11:53 AM 57.9 °F - 32.0 °F 37% 30.35 in 10.0 mi North 15.0 mph 26.5 mph N/A   Clear
12:53 PM 60.1 °F - 30.9 °F 33% 30.32 in 10.0 mi North 15.0 mph 21.9 mph N/A   Clear
2:53 PM 60.1 °F - 28.0 °F 30% 30.31 in 10.0 mi NNE 13.8 mph 21.9 mph N/A   Clear
3:53 PM 59.0 °F - 28.0 °F 31% 30.30 in 10.0 mi North 15.0 mph 24.2 mph N/A   Clear
4:53 PM 59.0 °F - 26.1 °F 28% 30.31 in 10.0 mi North 11.5 mph 23.0 mph N/A   Clear
5:53 PM 57.0 °F - 26.1 °F 30% 30.33 in 10.0 mi North 11.5 mph 17.3 mph N/A   Clear
6:53 PM 55.0 °F - 27.0 °F 34% 30.36 in 10.0 mi North 3.5 mph - N/A   Clear
7:53 PM 52.0 °F - 28.0 °F 40% 30.40 in 10.0 mi NNW 4.6 mph - N/A   Clear
8:53 PM 48.9 °F - 28.0 °F 44% 30.41 in 10.0 mi NNW 5.8 mph - N/A   Clear
9:53 PM 48.0 °F - 28.9 °F 48% 30.42 in 10.0 mi North 3.5 mph - N/A   Clear
10:53 PM 48.0 °F - 28.9 °F 48% 30.43 in 10.0 mi North 4.6 mph - N/A   Clear
11:53 PM 46.9 °F - 30.0 °F 52% 30.43 in 10.0 mi North 4.6 mph - N/A   Clear